Cairns, Australia

3:26 AM AEST on February 20, 2017 (GMT +1000)
Cairns

Weather History for 94287 - November, 2013

Change the Weather History Date:

Tuesday, November 5, 2013

  Actual Average Record
Temperature  
Mean Temperature 76 °F -  
Max Temperature 86 °F 87 °F - ()
Min Temperature 66 °F 72 °F - ()
Cooling Degree Days 11    
Growing Degree Days 26 (Base 50)    
Moisture  
Dew Point 64 °F    
Average Humidity 64    
Maximum Humidity 88    
Minimum Humidity 31    
Precipitation  
Precipitation 0.00 in 0.15 in - ()
Sea Level Pressure  
Sea Level Pressure 29.96 in    
Wind  
Wind Speed 13 mph ()    
Max Wind Speed 24 mph    
Max Gust Speed -    
Visibility 7.2 miles    
Events      
T = Trace of Precipitation, MM = Missing Value Source: Averaged Metar Reports

Daily Weather History Graph

Daily Weather History Graph

Search for Another Location

Airport or City:

Trip Planner

Search our weather history database for the weather conditions in past years. The results will help you decide how hot, cold, wet, or windy it might be!

Date:

Astronomy

Nov. 05, 2013 Rise Set
Actual Time 5:37 AM AEST 6:23 PM AEST
Civil Twilight 5:14 AM AEST 6:46 PM AEST
Nautical Twilight 4:48 AM AEST 7:13 PM AEST
Astronomical Twilight 4:21 AM AEST 7:40 PM AEST
Moon 6:52 AM AEST (11/5) 8:09 PM AEST (11/5)
Length of Visible Light 13h 31m
Length of Day
12h 46m
Waxing Crescent, 3% of the Moon is Illuminated
Nov 5
Waxing Crescent
Nov 10
First Quarter
Nov 18
Full
Nov 26
Last Quarter
Dec 3
New

Hourly Weather History & Observations

Time (AEST) Temp. Heat Index Dew Point Humidity Pressure Visibility Wind Dir Wind Speed Gust Speed Precip Events Conditions
12:00 AM 71 °F - 64 °F 73% 29.98 in - SSE 4.6 mph - -  
12:00 AM 71.6 °F - 64.4 °F 78% 29.98 in 6.2 mi SSE 4.6 mph - N/A   Partly Cloudy
12:30 AM 69.8 °F - 64.4 °F 83% 29.95 in 6.2 mi ESE 3.5 mph - N/A   Partly Cloudy
1:00 AM 69 °F - 64 °F 78% 29.96 in - SE 11.5 mph - -  
1:00 AM 69.8 °F - 64.4 °F 83% 29.95 in 6.2 mi SE 11.5 mph - N/A   Partly Cloudy
1:30 AM 69.8 °F - 62.6 °F 78% 29.92 in 6.2 mi SSE 13.8 mph - N/A   Partly Cloudy
2:00 AM 69.8 °F - 62.6 °F 78% 29.92 in 6.2 mi SE 9.2 mph - N/A   Partly Cloudy
2:30 AM 68.0 °F - 62.6 °F 83% 29.92 in 6.2 mi SE 9.2 mph - N/A   Partly Cloudy
3:00 AM 68 °F - 62 °F 75% 29.93 in - SE 10.4 mph - -  
3:00 AM 68.0 °F - 62.6 °F 83% 29.92 in 6.2 mi SE 10.4 mph - N/A   Partly Cloudy
3:30 AM 68.0 °F - 62.6 °F 83% 29.92 in 6.2 mi SE 11.5 mph - N/A   Partly Cloudy
4:00 AM 67 °F - 62 °F 81% 29.94 in - SE 12.7 mph - -  
4:00 AM 66.2 °F - 62.6 °F 88% 29.92 in 6.2 mi SE 12.7 mph - N/A   Partly Cloudy
4:30 AM 66.2 °F - 62.6 °F 88% 29.92 in 6.2 mi SE 12.7 mph - N/A   Partly Cloudy
5:00 AM 66.2 °F - 62.6 °F 88% 29.92 in 6.2 mi SE 13.8 mph - N/A   Partly Cloudy
5:30 AM 66.2 °F - 62.6 °F 88% 29.95 in 6.2 mi SSE 15.0 mph - N/A   Partly Cloudy
6:00 AM 67 °F - 62 °F 78% 29.95 in 19 mi SE 12.7 mph - -   Partly Cloudy
6:00 AM 66.2 °F - 62.6 °F 88% 29.95 in 6.2 mi SE 12.7 mph - N/A   Partly Cloudy
6:30 AM 69.8 °F - 62.6 °F 78% 29.95 in 6.2 mi SE 12.7 mph - N/A   Partly Cloudy
7:00 AM 75 °F - 63 °F 57% 29.98 in - South 9.2 mph - -  
7:00 AM 75.2 °F - 62.6 °F 65% 29.98 in 6.2 mi South 9.2 mph - N/A   Partly Cloudy
7:30 AM 77.0 °F - 62.6 °F 61% 29.98 in 6.2 mi South 10.4 mph - N/A   Partly Cloudy
8:00 AM 77.0 °F - 62.6 °F 61% 29.98 in 6.2 mi South 12.7 mph - N/A   Partly Cloudy
8:30 AM 78.8 °F - 64.4 °F 61% 29.98 in 6.2 mi South 12.7 mph - N/A   Partly Cloudy
9:00 AM 80 °F - 64 °F 48% 30.00 in 19 mi South 13.8 mph - -   Partly Cloudy
9:00 AM 80.6 °F 82.3 °F 64.4 °F 58% 29.98 in 6.2 mi South 13.8 mph - N/A   Partly Cloudy
9:30 AM 80.6 °F 81.8 °F 62.6 °F 54% 30.01 in 6.2 mi SE 13.8 mph - N/A   Partly Cloudy
10:00 AM 83 °F - 64 °F 42% 30.01 in - SSE 18.4 mph - -  
10:00 AM 82.4 °F 83.9 °F 64.4 °F 54% 29.98 in 6.2 mi SSE 18.4 mph - N/A   Partly Cloudy
10:30 AM 82.4 °F 83.4 °F 62.6 °F 51% 29.98 in 6.2 mi SSE 19.6 mph - N/A   Partly Cloudy
11:00 AM 82.4 °F 83.4 °F 62.6 °F 51% 29.98 in 6.2 mi SE 20.7 mph - N/A   Partly Cloudy
11:30 AM 84.2 °F 84.4 °F 60.8 °F 45% 29.98 in 6.2 mi SSE 20.7 mph - N/A   Partly Cloudy
12:00 PM 84 °F - 62 °F 38% 29.99 in 19 mi SE 19.6 mph - -   Partly Cloudy
12:00 PM 84.2 °F 85.0 °F 62.6 °F 48% 29.98 in 6.2 mi SE 19.6 mph - N/A   Partly Cloudy
12:30 PM 86.0 °F 86.1 °F 60.8 °F 43% 29.98 in 6.2 mi SSE 24.2 mph - N/A   Partly Cloudy
1:00 PM 85 °F - 59 °F 31% 29.98 in - SE 20.7 mph - -  
1:00 PM 84.2 °F 83.8 °F 59.0 °F 42% 29.98 in 6.2 mi SE 20.7 mph - N/A   Partly Cloudy
1:30 PM 82.4 °F 82.9 °F 60.8 °F 48% 29.95 in 6.2 mi SE 24.2 mph - N/A   Partly Cloudy
2:00 PM 84.2 °F 85.0 °F 62.6 °F 48% 29.95 in 6.2 mi SSE 21.9 mph - N/A   Partly Cloudy
2:30 PM 84.2 °F 85.0 °F 62.6 °F 48% 29.95 in 6.2 mi SE 21.9 mph - N/A   Partly Cloudy
3:00 PM 84 °F - 62 °F 38% 29.94 in 19 mi SE 23.0 mph - -   Partly Cloudy
3:00 PM 84.2 °F 85.0 °F 62.6 °F 48% 29.92 in - SE 23.0 mph - N/A   Unknown
3:30 PM 84.2 °F 85.0 °F 62.6 °F 48% 29.92 in 6.2 mi SE 21.9 mph - N/A   Partly Cloudy
4:00 PM 84 °F - 63 °F 40% 29.94 in - SE 23.0 mph - -  
4:00 PM 84.2 °F 85.0 °F 62.6 °F 48% 29.92 in 6.2 mi SE 23.0 mph - N/A   Partly Cloudy
4:30 PM 82.4 °F 83.9 °F 64.4 °F 54% 29.92 in 6.2 mi SE 23.0 mph - N/A   Partly Cloudy
5:00 PM 82.4 °F 84.6 °F 66.2 °F 58% 29.92 in 6.2 mi SE 21.9 mph - N/A   Partly Cloudy
5:30 PM 80.6 °F 82.3 °F 64.4 °F 58% 29.95 in 6.2 mi SE 20.7 mph - N/A   Partly Cloudy
6:00 PM 79 °F - 66 °F 55% 29.95 in - SE 21.9 mph - -  
6:00 PM 78.8 °F - 66.2 °F 65% 29.95 in 6.2 mi SE 21.9 mph - N/A   Partly Cloudy
6:30 PM 78.8 °F - 66.2 °F 65% 29.95 in 6.2 mi SE 19.6 mph - N/A   Partly Cloudy
7:00 PM 78 °F - 67 °F 62% 29.97 in - SSE 19.6 mph - -  
7:00 PM 78.8 °F - 68.0 °F 69% 29.95 in 6.2 mi SSE 19.6 mph - N/A   Scattered Clouds
7:30 PM 78.8 °F - 68.0 °F 69% 29.95 in 6.2 mi SSE 17.3 mph - N/A   Partly Cloudy
8:00 PM 77.0 °F - 68.0 °F 74% 29.98 in 6.2 mi SSE 18.4 mph - N/A   Scattered Clouds
8:30 PM 78.8 °F - 66.2 °F 65% 29.98 in 6.2 mi SSE 17.3 mph - N/A   Scattered Clouds
9:00 PM 77 °F - 66 °F 62% 29.99 in - SSE 17.3 mph - -  
9:00 PM 77.0 °F - 66.2 °F 69% 29.98 in 6.2 mi SSE 17.3 mph - N/A   Partly Cloudy
9:30 PM 77.0 °F - 66.2 °F 69% 29.98 in 6.2 mi SSE 13.8 mph - N/A   Partly Cloudy
10:00 PM 77 °F - 66 °F 60% 30.01 in - SSE 15.0 mph - -  
10:00 PM 77.0 °F - 66.2 °F 69% 29.98 in 6.2 mi SSE 15.0 mph - N/A   Partly Cloudy
10:30 PM 77.0 °F - 66.2 °F 69% 29.98 in 6.2 mi SSE 13.8 mph - N/A   Partly Cloudy
11:00 PM 75.2 °F - 66.2 °F 73% 29.98 in 6.2 mi South 11.5 mph - N/A   Scattered Clouds
11:30 PM 75.2 °F - 66.2 °F 73% 29.98 in 6.2 mi South 13.8 mph - N/A   Partly Cloudy